Volver al catálogo

DMSP 5D-2 F13 DEB

ActivoSSO
NORAD 40511·DEBRIS·🇺🇸 United States

Lanzado Mar 24, 1995 desde Vandenberg Space Force Base

Loading…

Próximos Pases (próximas 24 horas)

TLE

ActualizadoSource: Space-Track

Época: Sep 14, 2026, 09:50 UTC

1 40511U 95015CX  26257.40988393  .00005930  00000-0  14959-2 0  9994
2 40511  98.7701 318.7054 0010907 260.6328  99.3633 14.51424377595759

Sigue DMSP 5D-2 F13 DEB en tiempo real con AllMySat

Download on the App Store